Bangkok (Suvarnabhumi), Thailand

1:26 PM +07 on November 20, 2017 (GMT +0700)
Bangkok (Suvarnabhumi)

Weather History for VTBS - December, 2012

Change the Weather History Date:

Sunday, December 16, 2012

  Actual Average (VTBU) Record (VTBU)
Temperature  
Mean Temperature 87 °F -  
Max Temperature 96 °F 90 °F 95 °F (2002)
Min Temperature 78 °F 69 °F 37 °F (2006)
Cooling Degree Days 22    
Growing Degree Days 37 (Base 50)    
Moisture  
Dew Point 70 °F    
Average Humidity 60    
Maximum Humidity 79    
Minimum Humidity 39    
Precipitation  
Precipitation 0.00 in 0.01 in - ()
Sea Level Pressure  
Sea Level Pressure 29.87 in    
Wind  
Wind Speed 5 mph ()    
Max Wind Speed 10 mph    
Max Gust Speed -    
Visibility 5.8 miles    
Events      
Averages and records for this station are not official NWS values.
T = Trace of Precipitation, MM = Missing Value Source: Averaged Metar Reports

Daily Weather History Graph

Daily Weather History Graph

Search for Another Location

Airport or City:

Trip Planner

Search our weather history database for the weather conditions in past years. The results will help you decide how hot, cold, wet, or windy it might be!

Date:

Astronomy

Dec. 16, 2012 Rise Set
Actual Time 6:31 AM +07 5:52 PM +07
Civil Twilight 6:08 AM +07 6:15 PM +07
Nautical Twilight 5:41 AM +07 6:41 PM +07
Astronomical Twilight 5:15 AM +07 7:08 PM +07
Moon 9:05 AM +07 (12/16) 9:03 PM +07 (12/16)
Length of Visible Light 12h 06m
Length of Day
11h 20m
Waxing Crescent, 12% of the Moon is Illuminated
Dec 16
Waxing Crescent
Dec 20
First Quarter
Dec 28
Full
Jan 5
Last Quarter
Jan 12
New

Hourly Weather History & Observations

Time (+07) Temp. Heat Index Dew Point Humidity Pressure Visibility Wind Dir Wind Speed Gust Speed Precip Events Conditions
12:00 AM 82.4 °F 87.2 °F 71.6 °F 70% 29.89 in 5.6 mi NNW 4.6 mph - N/A   Scattered Clouds
12:30 AM 82.4 °F 87.2 °F 71.6 °F 70% 29.89 in 5.6 mi North 3.5 mph - N/A   Scattered Clouds
1:00 AM 84 °F - 74 °F 65% 29.87 in 6 mi Calm Calm - -   Clear
1:00 AM 82.4 °F 87.2 °F 71.6 °F 70% 29.89 in 5.6 mi North 2.3 mph - N/A   Scattered Clouds
1:30 AM 82.4 °F 87.2 °F 71.6 °F 70% 29.89 in 5.6 mi North 3.5 mph - N/A   Scattered Clouds
2:00 AM 82.4 °F 87.2 °F 71.6 °F 70% 29.86 in 5.6 mi North 4.6 mph - N/A   Scattered Clouds
2:30 AM 80.6 °F 84.6 °F 71.6 °F 74% 29.86 in 5.6 mi North 3.5 mph - N/A   Scattered Clouds
3:00 AM 80.6 °F 84.6 °F 71.6 °F 74% 29.86 in 5.6 mi North 4.6 mph - N/A   Scattered Clouds
3:30 AM 80.6 °F 84.6 °F 71.6 °F 74% 29.86 in 5.6 mi North 4.6 mph - N/A   Scattered Clouds
4:00 AM 80.6 °F 83.9 °F 69.8 °F 70% 29.86 in 5.6 mi North 4.6 mph - N/A   Scattered Clouds
4:30 AM 78.8 °F - 69.8 °F 74% 29.86 in 5.6 mi North 5.8 mph - N/A   Scattered Clouds
5:00 AM 78.8 °F - 69.8 °F 74% 29.86 in 5.6 mi NNW 5.8 mph - N/A   Scattered Clouds
5:30 AM 78.8 °F - 69.8 °F 74% 29.86 in 5.0 mi NNW 5.8 mph - N/A   Scattered Clouds
6:00 AM 78.8 °F - 69.8 °F 74% 29.86 in 5.0 mi NNW 4.6 mph - N/A   Scattered Clouds
6:30 AM 78.8 °F - 69.8 °F 74% 29.86 in 3.7 mi North 4.6 mph - N/A   Scattered Clouds
7:00 AM 80 °F - 74 °F 79% 29.88 in 5 mi Calm Calm - -   Mist
7:00 AM 78.8 °F - 69.8 °F 74% 29.89 in 3.7 mi North 5.8 mph - N/A   Scattered Clouds
7:30 AM 80.6 °F 84.6 °F 71.6 °F 74% 29.89 in 5.0 mi NNW 4.6 mph - N/A   Scattered Clouds
8:00 AM 82.4 °F 87.2 °F 71.6 °F 70% 29.89 in 5.6 mi North 6.9 mph - N/A   Scattered Clouds
8:30 AM 84.2 °F 89.6 °F 71.6 °F 66% 29.92 in 5.6 mi North 6.9 mph - N/A   Scattered Clouds
9:00 AM 86.0 °F 90.4 °F 69.8 °F 58% 29.92 in 6.2 mi North 8.1 mph - N/A   Scattered Clouds
9:30 AM 87.8 °F 92.6 °F 69.8 °F 55% 29.92 in 6.2 mi NNE 9.2 mph - N/A   Scattered Clouds
10:00 AM 87.8 °F 92.6 °F 69.8 °F 55% 29.92 in 6.2 mi NNE 8.1 mph - N/A   Scattered Clouds
10:30 AM 89.6 °F 94.7 °F 69.8 °F 52% 29.92 in 6.2 mi NNE 6.9 mph - N/A   Scattered Clouds
11:00 AM 89.6 °F 94.7 °F 69.8 °F 52% 29.92 in 6.2 mi NNE 8.1 mph - N/A   Scattered Clouds
11:30 AM 91.4 °F 96.8 °F 69.8 °F 49% 29.92 in 6.2 mi North 5.8 mph - N/A   Scattered Clouds
12:00 PM 91.4 °F 95.4 °F 68.0 °F 46% 29.92 in 6.2 mi North 8.1 mph - N/A   Scattered Clouds
12:30 PM 93.2 °F 98.8 °F 69.8 °F 46% 29.89 in 6.2 mi NE 9.2 mph - N/A   Scattered Clouds
1:00 PM 94 °F - 72 °F 39% 29.85 in 5 mi Calm Calm - -   Haze
1:00 PM 91.4 °F 96.8 °F 69.8 °F 49% 29.86 in 6.2 mi NE 8.1 mph - N/A   Scattered Clouds
1:30 PM 93.2 °F 98.8 °F 69.8 °F 46% 29.86 in 6.2 mi NE 10.4 mph - N/A   Scattered Clouds
2:00 PM 93.2 °F 98.8 °F 69.8 °F 46% 29.86 in 6.2 mi NNE 5.8 mph - N/A   Scattered Clouds
2:30 PM 93.2 °F 98.8 °F 69.8 °F 46% 29.83 in 6.2 mi East 6.9 mph - N/A   Scattered Clouds
3:00 PM 95.0 °F 99.5 °F 68.0 °F 41% 29.83 in 6.2 mi ENE 6.9 mph - N/A   Scattered Clouds
3:30 PM 95.0 °F 99.5 °F 68.0 °F 41% 29.83 in 6.2 mi East 8.1 mph - N/A   Scattered Clouds
4:00 PM 95.0 °F 99.5 °F 68.0 °F 41% 29.83 in 6.2 mi East 5.8 mph - N/A   Scattered Clouds
4:30 PM 93.2 °F 96.2 °F 66.2 °F 41% 29.80 in 6.2 mi East 6.9 mph - N/A   Scattered Clouds
5:00 PM 93.2 °F 96.2 °F 66.2 °F 41% 29.80 in 6.2 mi NNE 3.5 mph - N/A   Scattered Clouds
5:30 PM 91.4 °F 95.4 °F 68.0 °F 46% 29.83 in 6.2 mi North 5.8 mph - N/A   Scattered Clouds
6:00 PM 89.6 °F 93.4 °F 68.0 °F 49% 29.83 in 6.2 mi North 4.6 mph - N/A   Scattered Clouds
6:30 PM 87.8 °F 92.6 °F 69.8 °F 55% 29.83 in 6.2 mi North 5.8 mph - N/A   Scattered Clouds
7:00 PM 89 °F - 76 °F 58% 29.82 in 5 mi Calm Calm - -   Mist
7:00 PM 86.0 °F 90.4 °F 69.8 °F 58% 29.83 in 6.2 mi NNW 4.6 mph - N/A   Scattered Clouds
7:30 PM 86.0 °F 91.8 °F 71.6 °F 62% 29.86 in 6.2 mi NW 4.6 mph - N/A   Scattered Clouds
8:00 PM 84.2 °F 89.6 °F 71.6 °F 66% 29.86 in 6.2 mi NW 5.8 mph - N/A   Scattered Clouds
8:30 PM 84.2 °F 89.6 °F 71.6 °F 66% 29.86 in 6.2 mi NNW 5.8 mph - N/A   Scattered Clouds
9:00 PM 84.2 °F 89.6 °F 71.6 °F 66% 29.89 in 6.2 mi NNW 5.8 mph - N/A   Scattered Clouds
9:30 PM 84.2 °F 89.6 °F 71.6 °F 66% 29.89 in 6.2 mi NNW 5.8 mph - N/A   Scattered Clouds
10:00 PM 84.2 °F 88.4 °F 69.8 °F 62% 29.89 in 6.2 mi NNW 6.9 mph - N/A   Scattered Clouds
10:30 PM 84.2 °F 88.4 °F 69.8 °F 62% 29.89 in 6.2 mi NNW 6.9 mph - N/A   Scattered Clouds
11:00 PM 84.2 °F 87.3 °F 68.0 °F 58% 29.89 in 6.2 mi North 8.1 mph - N/A   Scattered Clouds
11:30 PM 84.2 °F 87.3 °F 68.0 °F 58% 29.89 in 6.2 mi North 8.1 mph - N/A   Scattered Clouds